CAPE
592 790 921 920 861 860 955 1128 1140 1197 1306 1446 1597 1772 1806 1675 937 1147 1339 1028 1091 959 1042 1004 1170 1238 1190 1196 862 800 645 501 773 766 238 88 65 69 37 83 153 55 0
350 433 545 571 514 429 456 357 396 488 638 987 1338 1471 1480 1749 1621 931 1190 1642 1426 1372 1282 1196 1041 1176 1304 1257 1216 1092 1013 763 687 784 633 157 91 100 62 84 63 110 87
119 393 571 425 233 184 107 119 180 279 359 469 718 899 1081 1225 1272 1040 1111 1365 1470 1508 1481 1356 1393 1251 1395 1547 1530 1466 1402 1067 607 543 737 178 144 131 134 62 58 55 109
129 428 425 322 198 133 117 176 251 269 295 371 475 598 762 881 1095 1115 1098 986 1062 1236 1274 1444 1542 1571 1499 1556 1636 1613 1516 1286 991 573 528 547 241 141 123 159 116 36 79
9 224 296 176 145 92 163 239 303 316 371 374 493 629 702 749 785 751 904 961 1124 1221 1354 1296 1323 1474 1405 1378 1226 988 1208 1215 1065 826 640 581 634 304 221 97 98 72 63
0 42 102 121 89 97 125 164 200 230 265 284 426 608 680 697 790 705 530 752 958 1136 965 1192 737 541 252 55 210 292 639 797 824 812 757 691 722 576 112 153 122 98 162
55 136 206 165 83 100 51 0 0 10 37 132 323 493 489 558 659 415 276 383 706 993 961 757 727 568 227 200 3 16 22 79 60 135 176 360 637 690 253 66 71 51 74
0 33 89 100 89 9 0 0 0 0 0 8 100 261 342 433 483 289 83 105 338 595 976 719 533 506 126 2 16 0 0 4 0 16 137 288 642 667 274 275 156 40 1
7 59 73 53 2 0 0 0 0 0 0 0 5 44 173 353 400 128 1 49 156 260 640 796 583 332 104 0 0 0 0 0 47 144 216 367 591 544 190 39 66 87 74
0 5 4 0 0 0 0 0 0 0 0 3 47 218 176 292 307 151 1 11 250 216 236 387 238 199 89 0 6 23 8 0 0 19 12 4 30 61 0 115 139 116 57
0 0 0 0 0 0 0 0 0 0 14 66 77 15 49 156 63 2 1 0 120 218 222 231 79 0 1 1 0 0 0 0 0 27 98 321 355 192 10 21 79 157 26
10 0 0 0 0 0 0 0 0 3 23 36 44 21 28 87 23 1 1 1 0 4 119 217 140 163 2 1 1 0 0 0 4 27 10 100 110 246 174 111 68 16 31
1 0 0 0 0 0 0 0 0 29 0 6 50 56 1 0 0 0 0 0 1 0 2 2 1 1 2 2 1 0 1 0 0 57 2 24 81 306 166 25 1 0 0
0 0 0 0 0 0 0 0 2 6 15 13 1 0 0 0 0 0 0 0 1 1 0 0 0 0 1 0 1 0 0 0 0 36 48 1 50 53 71 61 3 1 0
0 0 0 0 0 0 0 0 1 21 15 2 0 0 0 0 0 0 1 0 1 0 1 1 1 1 1 1 1 1 1 22 22 53 60 135 88 79 84 15 0 0 0
0 0 0 0 0 0 0 0 5 19 1 1 1 1 0 0 0 0 1 1 1 2 1 1 1 1 1 1 1 1 1 2 17 16 62 71 75 45 15 1 0 0 0
1 2 0 0 0 1 5 1 7 36 0 1 1 1 1 1 0 1 1 1 1 0 3 7 1 1 1 1 1 0 1 1 1 22 41 31 18 1 0 1 1 0 0
13 9 0 0 24 36 12 5 12 21 27 4 0 1 1 0 0 1 0 0 0 0 0 2 0 0 0 0 0 0 1 0 0 0 3 1 1 0 1 1 0 0 0
22 25 21 11 12 30 30 22 13 1 3 0 0 0 1 0 1 0 0 0 4 3 0 0 0 0 0 0 0 0 0 0 0 0 0 0 0 0 1 1 1 0 0
25 46 42 34 27 27 29 22 13 3 0 5 1 0 0 0 0 0 0 1 31 3 0 0 0 0 0 0 0 0 0 0 0 0 0 0 0 0 0 0 0 0 0
9 8 5 3 6 41 11 18 9 0 0 0 8 2 0 0 0 0 12 9 30 3 0 0 0 0 0 0 0 0 0 0 0 0 0 0 0 0 0 0 0 0 0
9 0 0 1 0 0 0 0 0 0 0 35 77 31 0 0 0 0 10 18 0 4 5 4 3 0 0 0 0 0 0 0 0 0 0 0 0 0 0 0 0 0 0
0 0 0 0 0 1 0 0 0 0 0 0 3 18 0 0 0 0 5 7 4 0 0 3 12 39 6 1 13 10 5 7 4 0 2 1 0 0 0 0 0 0 0
0 0 0 0 0 0 0 0 0 0 0 0 0 0 0 0 0 0 0 0 11 0 0 0 1 23 13 20 17 30 39 36 11 1 18 13 0 0 0 0 0 0 0
4 3 0 0 0 0 1 0 0 0 0 0 0 0 0 0 0 0 0 0 0 0 0 0 0 0 0 8 16 7 2 9 12 1 0 9 0 0 0 0 0 0 0
6 8 6 4 2 3 0 2 3 3 0 0 0 0 0 0 0 0 1 0 0 3 0 0 1 0 0 0 0 0 0 0 0 0 0 0 0 0 0 0 0 0 0
CIN
-166 -169 -163 -162 -181 -182 -160 -124 -116 -106 -95 -88 -85 -63 -51 -41 -111 -44 -12 -43 -23 -65 -74 -114 -86 -103 -83 -40 -72 -68 -56 -87 -16 -65 -197 -241 -220 -210 -190 -177 -167 -243 -0
-216 -191 -160 -140 -140 -140 -137 -167 -188 -162 -142 -101 -77 -74 -51 -38 -34 -73 -25 -1 -3 -4 -15 -23 -109 -77 -62 -49 -24 -39 -37 -81 -53 -42 -121 -236 -219 -222 -228 -230 -224 -204 -223
-252 -199 -179 -205 -253 -247 -264 -244 -201 -164 -158 -145 -87 -72 -50 -44 -39 -58 -42 -10 -1 -2 -6 -5 -17 -24 -36 -9 -7 -3 -20 -69 -128 -103 -95 -266 -255 -251 -216 -279 -236 -216 -193
-219 -175 -179 -185 -229 -262 -287 -245 -173 -145 -143 -134 -131 -101 -64 -56 -31 -24 -21 -28 -18 -11 -16 -1 -1 -0 -8 -15 -4 -11 -22 -45 -68 -141 -153 -126 -209 -210 -234 -198 -189 -253 -173
-255 -193 -168 -241 -243 -279 -234 -181 -137 -127 -123 -120 -92 -84 -79 -64 -53 -54 -25 -8 -0 -1 -3 -5 -5 -6 -32 -53 -57 -122 -55 -40 -80 -130 -190 -132 -130 -159 -126 -241 -221 -218 -238
-29 -299 -239 -262 -284 -256 -211 -167 -143 -131 -143 -148 -118 -70 -61 -67 -60 -73 -80 -9 -0 -1 -17 -12 -85 -123 -257 -492 -332 -296 -190 -86 -93 -167 -209 -188 -129 -118 -211 -138 -173 -191 -122
-246 -199 -182 -193 -226 -206 -168 -0 -0 -195 -227 -174 -127 -75 -92 -94 -93 -159 -170 -90 -11 -1 -9 -56 -41 -94 -273 -268 -66 -379 -350 -396 -328 -364 -367 -300 -178 -134 -146 -220 -206 -228 -188
-13 -310 -206 -194 -166 -59 -0 -0 -0 -0 -0 -247 -168 -106 -78 -108 -130 -196 -290 -217 -85 -29 -1 -24 -61 -89 -285 -420 -490 -0 -21 -303 -0 -537 -424 -365 -185 -144 -177 -128 -156 -224 -38
-369 -312 -236 -218 -36 -0 -0 -0 -0 -0 -0 -0 -261 -185 -79 -68 -99 -239 -0 -238 -164 -113 -6 -0 -17 -99 -303 -0 -0 -1 -77 -0 -282 -330 -318 -285 -210 -184 -201 -198 -163 -153 -141
-0 -244 -241 -0 -0 -0 -0 -0 -0 -0 -0 -191 -117 -38 -39 -16 -37 -157 -0 -248 -102 -101 -79 -30 -88 -94 -181 -0 -138 -247 -238 -0 -22 -265 -20 -44 -498 -436 -0 -101 -115 -120 -172
-0 -0 -0 -0 -0 -0 -0 -0 -0 -0 -117 -102 -69 -44 -19 -6 -100 -68 -0 -0 -121 -35 -39 -40 -148 -0 -0 -0 -0 -0 -0 -0 -117 -190 -157 -161 -200 -175 -68 -170 -98 -94 -223
-249 -0 -0 -0 -0 -0 -0 -0 -0 -101 -109 -124 -68 -85 -59 -35 -83 -0 -0 -0 -0 -43 -41 -29 -62 -99 -0 -0 -0 -0 -0 -0 -0 -98 -178 -313 -205 -79 -77 -125 -99 -213 -259
-240 -0 -0 -0 -0 -0 -0 -0 -20 -111 -5 -205 -83 -29 -25 -0 -0 -0 -0 -0 -0 -0 -0 -22 -0 -0 -0 -0 -0 -0 -0 -0 -0 -49 -46 -248 -126 -35 -71 -196 -0 -0 -0
-0 -0 -0 -0 -0 -0 -0 -15 -83 -134 -165 -245 -143 -0 -0 -0 -0 -0 -0 -0 -0 -0 -0 -0 -0 -0 -0 -0 -0 -0 -0 -0 -0 -158 -124 -32 -1 -138 -134 -154 -46 -0 -0
-0 -0 -0 -0 -0 -0 -0 -0 -59 -124 -180 -148 -0 -0 -0 -0 -0 -0 -0 -0 -0 -0 -0 -0 -0 -0 -0 -0 -0 -0 -12 -161 -153 -3 -13 -10 -80 -105 -162 -257 -0 -0 -0
-0 -0 -0 -0 -0 -0 -0 -0 -134 -145 -21 -0 -0 -0 -0 -0 -0 -0 -0 -0 -0 -0 -0 -0 -0 -0 -0 -0 -0 -0 -0 -58 -190 -194 -177 -186 -206 -248 -298 -0 -0 -0 -0
-6 -105 -0 -0 -0 -22 -23 -0 -75 -160 -0 -0 -0 -0 -0 -0 -0 -0 -0 -0 -0 -0 -58 -1 -0 -0 -0 -0 -0 -0 -0 -0 -8 -200 -178 -232 -259 -30 -0 -0 -0 -0 -0
-37 -64 -7 -5 -17 -5 -12 -24 -21 -90 -146 -190 -0 -0 -0 -0 -0 -0 -0 -0 -20 -0 -0 -31 -0 -0 -0 -0 -0 -0 -0 -0 -0 -0 -224 -110 -0 -0 -0 -0 -0 -0 -0
-58 -50 -48 -43 -37 -28 -41 -49 -57 -86 -204 -0 -0 -0 -0 -0 -0 -0 -0 -0 -122 -47 -0 -0 -0 -0 -0 -0 -0 -0 -0 -0 -0 -0 -0 -0 -0 -0 -0 -0 -0 -0 -0
-48 -64 -62 -80 -64 -60 -59 -41 -84 -131 -0 -201 -125 -0 -0 -0 -0 -0 -0 -89 -162 -48 -0 -0 -0 -0 -0 -0 -0 -0 -0 -0 -0 -0 -0 -0 -0 -0 -0 -0 -0 -0 -0
-84 -149 -147 -176 -160 -139 -109 -96 -109 -0 -0 -0 -205 -224 -0 -0 -0 -0 -186 -220 -148 -176 -0 -0 -0 -0 -0 -0 -0 -0 -0 -0 -0 -0 -0 -0 -0 -0 -0 -0 -0 -0 -0
-84 -0 -73 -166 -0 -0 -26 -0 -0 -0 -47 -166 -140 -163 -0 -0 -0 -0 -226 -202 -0 -190 -233 -225 -204 -0 -0 -0 -0 -0 -0 -0 -0 -0 -0 -0 -0 -0 -0 -0 -0 -0 -0
-0 -0 -0 -0 -0 -99 -107 -0 -0 -0 -0 -0 -72 -194 -0 -0 -0 -0 -260 -84 -197 -0 -0 -218 -180 -138 -214 -90 -206 -176 -85 -145 -154 -0 -88 -85 -0 -0 -0 -0 -0 -0 -0
-0 -0 -0 -0 -0 -0 -0 -0 -0 -0 -0 -0 -0 -0 -0 -0 -0 -0 -7 -0 -206 -0 -0 -0 -35 -164 -142 -162 -203 -194 -193 -169 -204 -35 -206 -177 -27 -0 -0 -0 -0 -0 -0
-0 -0 -0 -0 -0 -0 -0 -0 -0 -0 -0 -0 -0 -0 -0 -0 -0 -0 -0 -0 -0 -0 -0 -0 -0 -0 -0 -144 -154 -171 -207 -242 -206 -24 -0 -182 -46 -0 -0 -0 -0 -0 -0
-0 -0 -0 -0 -0 -0 -0 -0 -0 -0 -0 -0 -0 -0 -0 -0 -0 -0 -0 -0 -0 -0 -0 -0 -0 -0 -0 -0 -0 -0 -0 -0 -0 -0 -0 -0 -0 -0 -0 -0 -0 -0 -0
Wind_Speed
3 4 5 6 6 6 5 6 6 7 7 8 9 8 8 8 8 8 11 12 13 13 13 14 15 13 9 9 7 8 9 8 11 6 4 2 4 5 6 5 5 5 5
3 4 6 6 6 6 6 7 7 7 8 11 9 7 7 8 9 10 12 12 14 15 16 12 14 10 13 12 9 12 10 9 8 13 6 4 6 5 5 4 5 5 5
4 6 7 7 7 7 7 7 7 7 9 9 9 9 9 8 8 9 12 13 15 15 15 15 15 13 14 12 12 11 9 9 8 8 7 3 4 2 1 3 4 5 4
7 7 8 8 7 7 7 7 7 7 9 10 9 10 11 10 10 9 10 12 14 15 16 16 16 17 18 17 14 14 11 9 8 7 8 7 4 2 2 3 4 3 4
7 8 11 10 7 7 7 7 7 7 8 9 10 11 11 11 9 10 11 12 14 16 16 17 18 21 26 21 13 13 12 10 8 7 6 6 5 3 5 2 4 2 3
8 11 11 8 7 7 7 7 7 8 8 8 10 11 12 10 13 15 14 11 13 15 16 15 17 20 20 19 19 16 15 12 12 8 5 7 10 7 4 4 3 2 3
8 11 11 9 8 7 6 6 7 8 8 9 10 10 12 13 15 16 16 11 13 14 15 14 14 13 18 17 17 15 13 13 12 9 10 11 10 9 7 6 5 4 5
9 12 12 10 7 6 6 7 7 6 8 8 9 11 12 12 16 15 15 12 13 13 14 14 16 16 14 16 14 13 14 14 14 11 13 10 9 9 12 9 10 6 1
11 10 11 8 6 6 7 7 7 7 8 9 10 12 12 14 13 14 11 10 12 13 12 12 14 13 16 15 13 14 12 12 8 13 15 15 15 14 12 4 5 5 4
12 10 8 6 7 7 7 7 5 6 9 7 10 10 12 10 11 11 10 8 10 9 9 11 16 16 15 17 17 14 11 11 10 11 6 11 12 11 14 13 8 8 4
9 8 6 6 6 6 6 4 6 9 8 6 6 9 10 8 8 9 7 5 7 7 6 6 6 16 16 15 16 11 13 12 14 10 7 7 6 10 9 11 10 9 5
5 6 7 6 5 4 6 6 7 8 7 5 5 6 6 6 8 7 9 7 8 6 8 6 7 13 16 18 17 21 22 17 9 7 6 6 8 10 11 12 12 7 5
6 7 6 6 5 5 5 7 6 5 4 5 5 5 6 4 5 9 10 10 8 4 6 6 8 10 12 8 18 16 9 7 5 5 6 3 11 10 10 8 6 6 5
7 7 6 6 7 5 5 4 5 5 7 5 5 6 5 5 5 5 6 6 7 4 6 4 5 5 7 3 4 8 5 5 7 7 6 7 10 9 8 7 6 5 3
6 6 6 5 6 7 5 5 4 6 7 8 4 4 5 5 2 5 5 6 6 5 6 2 3 1 2 2 1 2 3 4 4 9 19 14 8 8 5 7 5 5 3
6 4 4 5 6 5 4 6 4 14 13 10 10 6 4 10 9 9 11 13 12 11 2 2 1 1 0 1 1 2 2 3 2 1 4 5 5 6 7 4 3 4 4
7 5 4 5 4 4 5 5 9 10 12 13 12 10 10 15 11 7 9 11 9 9 5 5 2 2 3 2 3 3 2 2 1 3 4 4 5 5 6 5 5 4 3
5 7 5 4 5 4 6 8 7 10 10 6 10 9 8 8 9 8 8 11 4 4 2 3 3 4 3 3 2 2 2 3 3 3 4 4 4 5 5 5 4 3 4
3 4 5 6 6 6 7 9 8 8 7 5 2 3 5 6 7 9 4 1 2 3 3 4 3 3 3 4 4 3 3 3 3 3 3 4 4 4 4 3 4 5 6
5 8 7 6 7 6 5 5 7 9 5 4 3 3 1 1 2 3 2 2 2 1 1 2 1 2 2 3 3 3 4 3 4 4 4 4 4 4 5 5 5 4 3
6 5 7 7 7 5 4 4 8 6 11 6 3 4 5 3 3 2 3 3 1 1 1 0 2 3 3 4 3 3 4 4 4 4 4 4 3 4 4 5 4 4 5
6 5 6 6 6 5 4 4 4 5 6 6 4 1 5 2 2 3 3 2 3 3 2 1 1 1 3 3 3 3 4 4 4 4 4 4 4 4 4 4 4 4 3
7 7 7 8 9 9 6 5 4 7 7 6 4 3 2 2 3 4 4 4 2 2 2 3 2 2 1 1 2 4 4 3 4 4 4 4 4 3 3 3 3 3 4
9 10 11 9 8 8 8 8 7 12 12 10 9 7 6 5 5 6 6 4 1 1 2 2 1 3 3 4 4 4 4 4 3 2 6 5 6 6 4 3 4 4 4
9 8 8 8 9 9 9 11 10 14 12 8 8 9 9 9 8 10 9 7 8 7 8 7 7 8 6 6 4 6 3 7 6 7 4 4 6 6 4 3 3 3 3
12 10 9 8 10 8 10 9 8 7 9 10 10 8 9 9 9 11 10 10 9 9 9 9 11 16 15 12 12 11 8 8 5 5 3 4 5 4 3 3 4 3 4
Wind_Direction
281 298 283 274 263 258 255 266 267 273 264 251 242 243 238 236 229 230 227 231 228 237 228 220 222 222 223 224 212 213 219 215 248 267 233 252 255 243 270 270 264 240 239
250 259 254 262 273 283 283 276 267 268 268 259 248 238 237 227 225 224 233 231 229 233 238 223 229 221 226 224 217 217 221 220 225 249 232 231 234 227 232 275 257 239 237
263 258 265 263 259 254 252 264 280 278 278 269 255 252 246 239 231 224 231 233 232 236 235 234 230 221 225 221 220 218 214 216 216 235 255 201 252 227 295 252 262 271 249
285 271 262 262 259 266 269 263 261 261 269 273 266 258 252 246 235 232 232 235 237 234 235 235 232 223 225 222 217 212 214 205 213 213 242 250 204 238 227 220 280 240 257
282 272 265 262 260 263 263 261 261 260 264 260 263 261 255 247 243 238 237 242 244 240 234 232 233 228 224 216 209 209 205 210 209 213 224 237 231 216 228 193 226 244 272
274 269 267 257 261 263 262 261 264 266 263 265 261 258 260 255 245 235 238 247 252 245 242 230 228 226 227 222 209 196 196 203 207 195 214 227 251 234 187 209 202 176 268
277 279 271 264 263 261 262 270 269 269 267 265 264 259 258 254 245 243 239 247 253 253 244 236 230 230 227 225 223 213 208 215 228 209 221 216 230 222 212 193 196 192 212
280 283 281 266 255 263 273 272 274 265 268 268 271 266 262 261 249 243 243 254 253 252 253 236 232 235 225 214 216 211 212 215 220 223 234 230 231 209 208 220 202 201 249
278 276 271 255 250 264 268 272 279 281 278 273 272 272 264 264 258 255 249 254 250 250 251 241 235 228 226 209 219 227 225 227 217 216 220 219 215 188 205 182 202 164 213
285 279 270 236 237 251 259 274 278 274 274 285 290 292 275 276 277 280 264 250 245 248 249 245 222 227 216 207 212 218 230 232 221 224 216 230 207 196 196 211 204 191 162
281 278 259 257 267 266 276 265 282 286 276 285 294 309 296 275 280 285 278 249 250 243 240 232 215 214 220 206 203 213 228 237 223 215 230 221 187 211 195 204 207 194 163
278 276 281 284 278 284 280 285 280 280 284 298 287 297 283 298 272 305 314 270 270 273 249 235 235 229 223 213 195 216 217 227 215 231 230 228 231 220 212 200 201 203 176
289 282 283 292 290 288 286 288 297 290 300 293 285 281 290 295 296 310 311 314 292 253 261 292 290 282 233 219 218 233 244 229 236 246 254 210 244 224 210 182 148 146 126
275 285 292 300 301 286 264 262 280 314 320 300 294 282 292 297 301 329 327 319 318 286 260 260 274 271 248 215 234 191 191 198 232 253 299 284 214 177 178 174 165 152 131
280 282 293 290 288 287 272 264 299 306 259 274 270 285 296 302 318 311 292 319 312 290 313 208 233 237 253 183 55 19 299 29 71 179 176 195 189 171 163 158 147 142 152
270 279 279 286 283 283 297 308 287 255 256 235 252 222 286 259 298 311 324 316 314 317 249 233 176 191 91 351 39 57 38 95 118 138 119 158 157 145 138 151 124 156 144
249 265 275 277 289 297 307 327 305 295 227 238 233 229 229 260 297 317 316 322 297 333 58 356 5 121 99 70 50 34 27 52 86 122 119 119 142 147 140 150 130 138 125
284 274 268 279 294 306 302 283 266 273 294 298 229 219 213 245 281 304 333 324 345 6 350 358 9 56 55 69 64 85 58 54 61 81 93 108 116 122 124 130 136 133 134
318 282 281 287 283 266 289 292 279 271 269 264 292 235 225 246 280 282 301 235 301 349 10 44 26 41 45 62 47 47 68 69 63 59 74 88 95 110 113 117 115 122 110
304 280 268 274 276 262 268 271 295 287 265 268 262 248 167 129 326 317 316 313 307 49 96 97 116 76 60 69 78 74 69 60 57 54 58 61 84 100 103 106 110 123 110
306 309 276 278 266 251 266 240 258 303 314 298 256 215 210 178 235 268 322 9 326 329 333 85 117 102 92 92 89 82 82 79 84 86 76 74 73 80 76 92 99 106 119
310 320 329 330 334 295 258 217 262 250 238 281 319 355 193 200 220 275 279 270 241 191 171 184 272 161 143 133 115 96 107 112 109 113 112 101 95 103 112 113 107 101 94
334 6 1 3 0 356 3 21 3 21 356 10 331 26 45 357 323 306 310 312 288 168 211 182 215 190 192 231 178 154 151 201 203 160 147 141 127 126 130 134 146 135 146
354 10 15 14 3 4 10 22 17 44 24 9 11 25 26 18 17 353 325 296 177 148 248 234 285 282 179 215 212 212 200 212 164 171 151 154 151 153 157 162 167 179 160
1 9 16 7 23 8 11 23 21 37 24 351 23 21 19 25 19 26 10 18 42 28 25 22 23 17 357 330 313 278 220 185 177 161 153 163 159 158 153 164 158 164 155
17 12 21 13 31 357 30 22 23 33 38 16 17 18 40 27 29 33 18 25 39 49 45 36 33 29 27 30 15 26 26 30 45 27 122 149 149 155 149 180 186 188 184